Wind_Speed
19 23 25 24 23 21 22 22 23 23 22 21 21 21 20 18 18 18 19 20 19 19 19 19 19 19 19 19 19 18 18 18 18 18 18 18 18 17 17 17 16 16 16 16 16 16 16 16 17 16 15 15 15 14 14 14 14 14 14 14 14 13 13 14 14 15 16 15 15 15 14 14 14 14 15 15 14 13 11 11 11 12 12 12 13
23 25 25 23 23 22 23 22 23 23 22 21 21 21 19 19 19 20 20 19 19 19 19 19 19 19 19 18 18 18 18 18 18 18 18 18 17 17 16 16 16 16 15 15 15 16 16 16 16 15 15 14 14 13 13 13 13 14 14 14 13 14 14 14 15 15 15 15 15 15 14 14 14 13 13 13 13 11 11 12 12 13 13 12 14
25 24 23 23 23 22 23 23 23 22 22 21 21 20 19 20 21 21 20 19 19 19 19 19 19 18 18 18 18 18 18 17 18 18 17 17 17 17 16 16 16 15 15 15 15 15 16 16 15 14 14 14 13 13 13 12 12 13 13 13 13 14 15 15 15 14 15 15 14 14 14 14 13 13 13 13 12 12 13 13 13 13 13 13 14
25 23 22 22 22 22 23 23 22 22 22 21 20 20 21 22 22 20 19 19 19 19 19 18 18 18 18 17 17 17 17 17 17 17 17 17 16 16 16 16 15 15 15 14 14 14 14 14 14 13 13 13 12 12 12 11 11 12 13 13 13 13 14 14 13 12 13 14 14 15 14 13 13 13 13 13 13 13 14 14 14 14 13 14 16
24 24 23 22 22 22 22 23 22 22 21 20 20 20 22 22 20 20 19 20 19 19 18 18 17 17 17 17 17 17 17 17 17 17 17 16 16 16 16 16 15 15 14 14 13 13 13 13 13 12 12 11 11 11 11 12 11 11 12 12 12 13 12 12 11 12 12 13 15 16 14 13 13 13 13 13 14 14 14 14 14 15 15 16 17
24 24 23 20 21 23 23 23 22 22 21 20 20 21 22 21 20 20 20 20 19 18 17 17 17 16 16 16 16 16 16 16 16 16 16 16 16 16 15 15 15 14 14 14 13 13 12 12 11 11 11 10 10 10 10 11 11 12 12 12 12 12 11 11 11 11 11 12 15 15 14 13 13 12 13 13 14 14 14 14 14 15 17 18 18
24 24 23 21 21 24 23 22 21 21 21 20 20 22 22 20 20 20 19 19 18 18 17 16 16 16 16 16 15 15 15 15 15 15 16 15 16 15 15 15 14 14 14 14 13 13 13 12 11 10 10 10 9 9 9 10 11 12 12 12 13 12 11 11 11 11 11 13 14 13 13 12 12 12 12 13 14 14 14 13 13 13 15 17 17
24 23 22 22 23 25 24 22 21 21 21 20 22 22 21 20 20 19 19 19 18 17 16 16 15 15 15 15 15 15 15 14 15 15 15 14 14 14 14 14 13 14 14 13 13 13 13 12 11 11 10 10 9 9 9 9 10 11 12 13 14 13 11 12 11 12 13 12 13 12 13 12 11 12 11 13 13 14 14 13 13 13 14 14 14
25 23 21 22 25 27 25 23 21 21 21 21 23 22 20 20 20 19 19 18 17 16 16 15 15 15 15 15 15 14 14 14 14 14 13 13 13 13 13 12 12 13 13 13 13 12 12 12 11 11 11 10 9 9 9 9 10 11 12 14 14 13 10 11 11 12 12 12 13 13 13 12 11 12 11 12 13 13 13 12 12 13 12 13 13
26 23 22 25 27 26 25 24 21 21 21 22 23 22 20 20 20 19 19 18 17 16 16 15 15 15 14 14 14 14 13 13 13 12 12 12 12 12 12 12 12 12 12 12 12 11 11 11 11 11 10 10 9 8 8 9 10 11 13 14 14 11 9 10 11 11 12 13 12 11 12 11 11 11 11 11 11 12 12 11 12 12 12 12 13
27 24 24 27 28 25 25 23 21 21 22 23 23 21 20 20 19 19 18 17 16 16 15 15 15 14 14 14 14 13 13 12 12 12 11 11 11 11 11 11 11 11 11 11 11 11 11 11 11 10 10 9 9 8 8 8 9 11 13 14 12 10 9 10 11 11 13 13 12 11 11 10 11 12 11 11 11 11 12 12 12 12 12 12 12
26 24 25 28 27 26 25 22 22 21 22 23 22 21 20 20 19 18 18 16 16 15 15 15 14 14 13 13 13 13 12 12 12 11 11 11 11 11 11 10 10 11 11 11 11 11 10 10 10 10 9 9 8 8 8 8 8 10 13 14 12 10 10 10 11 13 13 12 13 12 10 10 12 12 13 13 13 12 12 12 12 12 12 11 11
26 24 27 29 27 25 23 22 22 21 22 23 22 21 20 20 19 18 17 16 16 15 15 14 14 13 13 13 12 12 11 11 11 11 11 10 11 10 10 10 10 10 10 10 10 10 10 10 10 9 9 9 8 9 9 8 8 9 12 14 13 12 11 10 11 13 13 12 13 13 10 11 12 13 14 14 14 14 13 12 12 12 12 12 11
26 25 28 27 25 24 23 22 22 21 22 22 21 21 20 19 18 17 16 16 15 15 14 14 13 13 12 12 12 11 11 11 11 11 11 11 11 10 10 10 9 9 10 10 10 10 10 9 9 9 8 8 8 8 9 9 9 9 10 12 13 13 11 11 10 10 12 12 13 12 11 11 12 13 14 14 13 13 13 12 13 13 12 12 12
28 27 27 25 24 23 23 22 21 22 22 22 21 21 20 19 18 17 16 15 15 14 13 13 13 12 12 12 12 11 11 11 11 11 11 11 11 11 10 10 9 9 9 10 10 10 9 9 9 8 8 8 8 8 8 8 8 8 10 11 12 12 11 13 12 10 10 12 13 12 11 12 12 13 13 13 12 12 12 12 12 13 13 12 11
29 29 27 26 25 24 22 22 21 22 21 22 21 20 20 19 17 16 15 15 14 13 13 12 12 11 12 12 12 11 11 11 11 10 11 11 11 11 10 10 10 9 9 10 9 9 9 9 8 8 8 7 7 7 7 7 8 8 9 11 10 10 9 11 13 11 10 12 13 12 12 12 12 12 12 13 13 11 11 11 12 13 13 12 11
29 28 27 27 26 24 23 22 22 21 21 21 21 20 20 18 17 16 15 14 13 13 12 12 11 10 11 11 12 11 11 10 10 10 11 11 11 11 10 10 10 9 9 9 9 9 9 9 8 8 8 8 7 7 6 6 7 8 9 11 10 9 9 12 13 12 11 12 13 12 11 12 12 12 12 12 12 11 10 11 11 12 12 12 11
29 28 27 27 26 24 23 23 23 22 21 20 19 19 20 18 16 16 15 14 13 12 12 11 11 10 10 10 11 11 11 10 10 11 11 10 10 10 10 9 9 9 8 8 8 8 9 9 8 8 8 8 7 7 6 6 7 8 9 11 10 8 9 12 11 11 11 12 14 12 11 12 12 11 11 11 11 11 10 10 11 11 11 11 11
28 28 27 27 25 24 24 24 23 22 21 18 18 19 19 18 16 16 14 13 12 12 11 10 10 9 9 9 10 10 10 10 10 10 10 10 9 8 8 8 8 8 8 7 7 8 8 8 7 7 7 7 7 7 7 6 7 8 10 11 11 9 8 10 9 9 11 11 12 12 11 11 12 11 11 10 9 10 9 9 10 10 10 10 10
28 28 26 26 25 24 24 23 22 21 20 18 18 19 19 18 16 15 14 13 12 11 10 10 9 9 8 9 9 10 9 8 9 9 8 9 7 6 7 7 7 7 6 6 6 7 7 7 6 6 5 6 6 6 6 6 6 7 9 9 9 8 6 7 8 9 11 11 10 10 11 11 12 11 11 11 9 10 10 9 9 10 10 10 10
27 27 26 25 24 24 24 22 22 21 19 19 19 18 18 18 16 15 14 12 11 10 10 9 9 8 8 8 9 9 6 6 8 6 6 7 5 5 6 5 5 5 6 6 6 6 6 6 5 5 4 4 5 5 4 5 6 6 7 7 6 5 6 8 8 8 10 11 9 9 11 12 12 11 11 11 10 10 10 9 8 9 9 9 9
24 25 25 26 25 24 23 23 23 21 20 20 19 18 18 17 16 15 13 12 11 10 10 9 8 8 8 8 8 8 7 5 6 5 4 5 5 4 4 4 4 4 5 5 5 5 5 4 4 4 2 1 2 3 3 4 6 6 5 6 5 4 6 10 9 8 10 10 9 10 11 12 12 11 11 11 11 10 9 9 8 9 8 9 9
25 24 25 26 25 24 23 23 23 22 21 19 18 19 19 17 16 15 13 12 11 10 9 9 8 7 7 7 6 7 7 5 5 5 5 5 4 4 3 4 4 3 3 4 4 4 3 2 2 2 2 3 2 1 2 3 4 5 5 7 8 6 7 10 11 9 10 10 8 11 11 12 12 11 11 11 11 10 9 8 8 8 8 8 8
24 25 26 25 25 24 23 24 24 23 21 19 18 19 19 17 16 15 13 12 11 10 9 9 9 7 6 6 6 6 5 4 5 4 4 4 4 3 3 4 4 3 3 3 2 1 1 1 1 2 2 2 2 1 2 2 3 4 4 5 7 8 8 9 11 11 9 8 8 11 11 12 12 11 11 11 11 11 10 9 8 8 7 7 8
23 24 25 25 25 24 23 24 24 23 21 20 19 19 20 17 16 15 13 12 11 10 10 10 10 9 7 7 7 6 5 5 5 5 5 4 4 3 3 3 2 2 1 1 1 2 2 2 3 4 3 3 2 1 1 1 3 4 3 3 4 7 11 11 12 12 10 8 8 10 11 11 13 12 11 11 11 11 10 10 9 8 8 7 7
23 23 23 24 25 24 24 24 24 23 21 20 19 19 20 17 16 16 14 13 12 11 10 10 10 10 9 8 8 9 8 6 7 6 4 5 5 4 3 4 5 4 3 2 3 5 5 4 5 6 4 3 2 2 1 1 3 4 3 2 2 4 11 14 12 11 10 8 10 10 10 11 12 12 11 11 11 10 10 10 9 9 8 8 7
21 22 23 23 25 24 23 24 24 23 21 20 18 19 20 17 16 16 14 13 13 12 11 11 10 10 9 9 8 9 9 7 8 7 3 3 5 4 4 4 5 5 5 3 3 5 7 5 4 6 3 2 1 2 2 2 5 5 4 3 2 2 7 14 13 11 10 10 11 9 9 9 10 11 11 10 10 9 9 9 9 9 9 8 8
19 22 24 23 24 24 24 24 24 23 21 20 19 19 19 17 16 16 15 13 13 12 11 11 11 9 9 9 8 8 8 8 8 8 5 4 4 3 2 2 3 3 4 2 2 3 6 5 3 5 4 2 3 2 1 4 6 5 4 3 2 2 6 13 14 12 11 12 12 10 9 9 9 10 10 10 10 9 9 8 8 9 9 8 8
22 23 24 23 23 24 24 24 24 23 21 20 19 19 20 17 16 16 15 13 13 12 11 11 11 10 9 8 8 7 6 8 10 8 5 4 3 2 2 1 2 2 2 1 2 3 2 2 3 5 3 2 2 3 2 4 5 4 3 1 4 3 5 9 13 13 13 13 12 11 9 9 9 9 9 10 9 9 9 8 8 9 9 8 8
24 23 24 25 24 25 24 24 25 24 21 20 19 19 20 17 16 16 15 14 13 12 11 11 11 10 10 10 8 7 4 7 10 7 5 5 4 3 2 1 1 2 2 1 2 4 2 2 5 5 2 1 2 3 2 2 4 3 3 0 3 2 2 5 14 16 14 13 12 11 9 8 9 9 9 9 9 9 8 9 9 8 9 8 8
25 24 23 24 25 26 24 24 25 24 22 20 19 19 19 18 16 16 15 14 13 12 12 11 11 10 11 11 10 9 4 4 7 6 6 6 4 3 2 1 2 3 2 1 3 3 3 2 4 2 1 1 1 2 2 3 5 4 4 1 3 2 3 2 15 18 14 13 11 11 9 7 8 8 9 9 9 10 9 9 9 8 8 8 8
25 25 25 25 25 26 25 24 25 25 23 20 19 19 18 18 16 16 15 15 14 12 12 11 10 10 11 13 12 11 6 3 5 6 5 6 4 3 2 1 1 3 3 2 1 2 3 2 1 1 1 0 1 2 2 3 5 3 3 1 2 2 3 5 17 18 13 12 11 11 9 7 7 7 8 9 9 10 9 9 8 8 8 8 8
24 24 25 27 26 26 27 26 25 25 24 21 20 19 18 18 17 16 15 15 14 13 12 11 10 10 11 12 12 13 10 5 6 7 5 5 4 3 4 4 2 3 2 2 1 3 3 2 1 1 0 1 1 3 3 3 4 3 2 1 1 2 1 4 15 18 15 13 11 9 8 7 7 7 8 8 9 9 9 9 9 9 8 8 8
24 24 25 26 27 26 26 26 25 25 24 22 21 19 18 18 17 16 16 15 15 14 13 12 11 10 10 11 11 12 12 9 7 8 6 5 6 5 5 5 4 3 2 2 2 3 2 1 1 1 1 1 2 4 3 3 4 3 3 2 1 2 2 3 10 15 15 13 10 8 7 7 7 8 9 8 9 9 10 10 9 9 8 8 8
24 25 25 26 26 26 26 25 25 25 24 22 22 20 18 18 17 16 17 16 15 14 14 13 12 12 11 12 12 11 13 11 9 9 8 7 7 7 6 5 4 3 3 3 3 2 2 1 0 1 2 1 3 3 4 4 3 3 3 3 2 2 3 7 9 12 12 10 9 9 8 7 7 8 9 9 9 9 10 10 10 10 9 9 8
25 25 26 25 25 26 26 26 26 26 24 23 22 20 18 18 18 17 17 17 16 15 14 13 13 13 12 13 13 12 13 12 10 10 9 8 8 7 7 6 4 4 4 4 2 3 3 1 1 1 2 1 2 2 4 4 3 2 2 5 4 2 5 11 12 13 11 8 8 8 9 8 7 7 7 8 8 8 9 10 11 10 9 9 9
25 26 26 26 25 25 26 26 26 26 25 23 22 21 19 18 17 17 16 17 16 15 14 14 13 13 12 13 15 14 13 13 12 11 9 8 8 7 7 7 6 6 5 3 3 4 3 2 1 1 2 2 2 1 3 3 3 2 3 3 5 5 8 12 12 11 9 7 7 8 9 7 6 7 8 7 6 8 9 9 10 10 9 9 8
26 27 28 27 26 25 25 26 26 26 25 24 22 21 19 18 17 16 16 16 16 14 14 13 13 13 13 14 15 15 14 14 13 12 11 8 7 7 7 8 8 7 6 5 5 5 3 2 2 2 1 2 2 1 1 2 2 3 2 4 5 5 8 11 11 10 8 7 7 8 8 7 7 7 8 9 7 6 7 9 10 9 9 8 7
26 27 28 28 27 26 25 25 26 26 24 24 23 20 19 18 16 16 15 16 16 15 14 14 13 13 13 14 15 15 14 14 14 13 12 10 8 8 8 9 9 7 6 6 5 5 4 3 2 2 1 1 0 1 0 1 2 3 5 7 5 4 8 11 11 9 7 6 6 7 7 8 9 8 7 9 9 7 5 8 9 9 8 6 5
26 27 29 28 27 27 26 25 27 27 25 24 23 21 20 19 17 16 16 17 16 15 15 14 14 13 13 14 14 14 14 14 14 14 13 11 10 10 8 8 8 7 7 7 6 5 5 5 3 2 1 0 1 1 2 2 4 4 6 8 4 2 7 9 8 8 7 5 6 7 7 9 10 10 9 9 8 7 6 6 7 6 5 4 5
27 28 30 31 29 28 29 27 27 29 27 25 24 23 22 20 19 18 17 17 17 16 16 15 14 14 14 15 15 14 14 14 14 14 13 12 11 10 9 8 9 9 8 7 6 5 4 4 4 3 2 1 1 1 0 4 8 5 4 6 5 3 5 6 5 7 7 5 6 5 6 8 9 8 9 8 7 8 8 7 8 7 5 6 7
29 29 30 32 31 29 29 29 28 30 30 28 26 24 23 21 20 19 17 17 17 17 16 15 14 14 15 16 16 15 14 15 15 15 14 13 13 12 11 11 11 10 10 8 6 5 5 4 4 4 4 3 3 2 4 5 6 8 6 5 5 3 4 4 4 7 8 6 6 4 5 11 11 7 8 8 7 9 9 9 9 7 6 6 7
29 29 29 31 31 28 29 30 29 29 30 29 28 26 23 22 20 19 18 16 17 17 16 15 14 13 15 16 17 17 16 16 15 16 15 14 15 14 12 11 11 11 10 8 8 7 6 5 5 5 4 5 4 2 4 5 3 8 7 4 4 3 3 2 5 7 8 7 6 4 5 10 11 8 7 9 7 8 9 8 8 7 6 6 6
29 30 30 31 31 29 29 32 30 29 30 29 28 26 23 22 19 18 18 16 16 17 16 15 15 14 15 17 17 17 17 17 16 16 16 15 16 16 14 12 12 11 10 10 10 8 7 7 7 7 6 6 5 4 3 3 3 8 4 1 3 4 2 4 6 7 9 7 6 6 5 6 7 7 8 10 8 7 7 7 8 7 7 6 5
29 31 32 31 32 31 30 32 31 29 30 30 28 26 24 22 20 18 19 18 16 18 18 17 17 17 17 18 19 18 18 17 17 17 17 16 16 17 16 14 13 12 12 11 10 9 8 8 8 8 8 7 5 6 4 3 3 3 1 1 2 2 1 6 7 4 6 8 7 7 6 5 5 4 6 10 8 7 7 6 7 7 8 6 5
31 32 33 32 32 32 31 32 32 29 30 31 30 28 25 24 23 20 20 19 18 19 21 19 18 19 18 18 20 20 19 18 18 18 17 17 17 17 16 15 15 14 13 12 10 9 9 8 9 10 9 7 4 6 7 6 4 3 1 1 1 0 2 6 5 1 1 5 7 9 6 6 7 3 4 7 9 9 7 6 7 7 7 7 6
32 32 33 32 32 33 32 32 33 30 29 31 32 30 27 25 25 23 21 21 20 19 20 20 18 19 19 18 20 21 20 19 19 19 18 18 18 18 17 16 16 15 13 12 10 9 9 9 10 10 9 8 6 6 7 8 6 4 4 3 3 2 1 3 5 2 1 1 2 7 8 7 8 7 6 8 11 11 8 8 8 7 7 6 7
33 32 33 33 34 35 35 33 33 32 30 31 33 32 28 27 26 24 22 22 22 19 19 20 18 18 19 19 20 21 22 21 20 20 20 20 19 19 19 18 17 15 14 14 12 10 10 10 10 10 9 9 8 7 6 9 9 6 6 6 5 3 1 2 6 5 3 1 1 4 8 10 10 10 9 10 12 13 11 11 9 8 8 6 6
33 34 34 35 35 36 36 35 34 33 32 32 34 33 30 29 27 25 23 22 22 21 19 19 19 19 19 20 20 22 23 23 22 21 21 21 20 20 20 20 18 16 14 14 13 12 12 11 11 12 11 10 10 9 6 7 10 8 9 9 6 4 4 3 5 4 3 3 2 4 6 8 8 10 10 8 11 15 13 11 9 10 9 6 8
33 35 35 35 35 36 37 36 34 34 34 33 35 35 32 30 29 27 25 23 22 21 20 20 21 20 20 21 22 22 24 25 23 22 22 22 22 21 20 20 20 17 15 14 13 13 13 13 13 13 13 11 11 11 9 7 8 8 12 13 8 5 6 7 7 8 6 2 1 4 8 9 7 8 8 7 9 13 13 12 9 10 10 7 8
32 33 33 34 35 35 37 38 36 35 35 35 35 36 34 31 30 29 27 25 23 22 22 21 22 23 21 20 22 22 22 24 23 23 23 23 23 22 20 20 20 18 18 16 15 14 14 14 14 13 14 13 12 12 10 9 9 8 9 13 11 7 6 7 8 9 7 4 4 4 6 9 9 10 10 8 7 6 10 13 8 9 11 6 6
Wind_Direction
142 137 134 138 136 137 135 131 127 126 125 125 123 122 122 120 118 116 113 108 105 102 101 100 98 96 95 94 94 94 95 95 94 93 93 92 93 94 95 96 96 95 94 94 92 89 89 88 87 87 85 81 78 77 76 75 77 79 81 82 82 82 88 94 94 96 95 95 95 92 89 89 90 90 90 88 84 81 85 88 94 94 92 95 100
144 138 136 140 138 137 135 130 127 126 125 125 124 124 123 121 119 116 112 108 107 105 103 101 99 97 96 96 96 95 95 95 94 93 92 93 93 93 94 94 93 92 92 91 89 87 86 85 86 87 84 79 76 77 78 76 76 77 79 81 79 79 85 92 94 95 95 94 93 91 90 88 87 87 86 84 84 87 92 94 94 94 96 97 98
141 138 140 141 138 138 136 131 129 127 127 127 126 125 123 121 118 114 111 110 110 107 105 102 100 99 98 97 96 96 94 93 93 93 92 92 92 93 92 92 91 90 89 89 87 86 86 85 85 86 84 80 78 76 79 78 76 75 77 80 79 80 84 92 95 94 98 99 95 91 88 87 86 84 85 84 86 93 97 95 93 95 98 99 100
138 139 141 139 137 138 136 133 132 130 128 128 127 125 123 121 116 114 112 112 111 108 105 103 101 100 99 98 97 95 93 92 91 91 91 91 91 91 91 90 90 89 89 89 87 85 85 86 86 87 87 84 81 78 78 78 76 75 75 78 80 81 82 88 93 95 98 97 99 96 89 86 86 84 85 87 87 90 94 93 91 92 97 103 105
138 140 141 138 137 138 136 134 132 129 128 128 126 125 124 120 116 115 115 113 110 108 105 103 102 101 100 99 97 95 93 91 89 89 88 89 90 89 90 89 90 90 90 89 87 87 86 86 88 87 87 86 84 80 75 74 73 75 75 77 80 82 83 86 89 93 94 96 101 100 95 91 87 88 89 89 90 91 92 92 91 90 97 105 106
138 140 141 138 138 138 137 134 130 128 128 128 127 127 125 120 119 118 115 113 110 107 104 103 102 101 100 99 96 94 92 90 89 88 88 89 88 88 87 87 88 89 88 88 88 88 88 88 90 89 89 87 84 80 74 71 72 74 76 78 81 84 87 89 88 90 95 99 98 94 95 96 92 92 92 90 89 90 92 93 93 92 97 103 104
138 140 139 138 141 140 137 133 130 131 130 130 130 128 125 122 121 118 115 112 109 107 105 104 103 102 100 98 96 93 92 91 91 90 89 89 88 88 86 87 87 88 87 87 88 88 89 90 91 92 91 89 85 79 74 73 74 76 78 81 86 89 89 87 87 95 104 100 93 92 97 101 99 96 92 93 92 89 89 91 92 91 96 102 104
139 141 139 140 145 142 137 134 134 133 132 133 133 130 127 124 121 118 115 111 109 108 106 105 103 102 99 97 95 94 93 92 91 91 90 90 90 89 88 88 87 88 88 87 88 88 88 89 91 92 92 89 87 81 79 79 78 79 81 85 90 92 88 82 85 97 105 97 88 91 94 94 98 98 98 97 93 90 89 90 92 91 93 99 102
141 142 140 143 146 143 138 135 136 135 135 136 136 133 128 125 122 118 115 112 110 109 107 106 103 101 98 97 96 95 94 92 91 91 90 90 90 90 90 90 89 88 88 88 87 87 87 88 89 90 91 89 87 85 85 85 85 85 86 91 95 94 86 81 86 96 103 95 88 91 90 89 94 97 99 98 95 95 94 94 95 96 96 96 98
143 141 142 146 145 143 137 135 137 137 139 140 138 134 129 126 122 119 115 113 112 111 109 106 104 101 99 98 96 95 93 93 92 91 90 90 90 89 90 88 88 88 87 89 89 88 87 87 87 87 89 88 88 86 88 90 91 91 92 98 101 99 91 86 89 97 100 95 92 94 93 93 94 93 95 98 98 98 96 96 97 102 102 97 98
142 141 143 146 146 143 137 135 138 139 142 142 140 135 130 126 123 120 118 117 115 112 109 106 105 102 101 99 96 95 94 93 92 92 92 91 91 89 89 89 88 89 89 90 90 90 88 87 86 87 89 87 87 86 88 92 94 95 98 103 104 98 97 97 97 100 98 98 100 92 91 96 96 93 95 97 95 95 96 97 99 102 104 102 101
141 139 143 147 146 142 138 137 141 141 142 143 140 135 132 127 124 123 122 121 118 113 110 109 106 103 101 99 96 95 93 93 93 93 94 93 93 91 90 91 90 89 90 90 90 90 89 88 87 88 89 89 90 88 88 91 97 99 102 107 101 88 96 105 99 102 102 102 103 95 96 102 101 99 98 97 93 93 96 99 102 104 105 105 106
141 139 145 148 144 141 139 140 143 142 142 142 141 136 133 128 125 126 126 123 119 115 113 110 107 104 101 98 96 95 94 92 93 94 95 96 94 93 92 92 91 89 89 90 91 90 89 89 90 91 91 93 93 90 88 87 95 100 105 110 104 92 93 100 94 105 113 109 106 106 112 111 107 106 102 97 93 92 93 96 100 104 106 107 111
142 142 146 146 142 141 141 142 144 144 143 143 142 137 133 129 128 128 126 124 122 119 115 112 109 105 100 97 95 95 95 94 93 93 92 93 92 91 92 92 92 90 91 93 95 94 92 91 91 92 93 94 93 92 90 88 95 103 109 113 113 105 102 107 99 100 112 114 114 116 118 115 113 111 106 101 96 95 95 97 97 99 105 110 113
143 144 145 144 143 143 143 144 145 146 145 145 144 138 134 130 130 130 127 126 124 123 119 114 110 105 101 96 95 96 96 96 95 93 90 89 87 87 90 92 93 94 96 98 99 97 94 94 93 93 93 92 92 91 90 90 94 103 113 117 117 111 112 119 114 104 104 112 116 118 118 118 119 115 110 108 104 101 99 99 98 96 100 107 112
144 144 143 143 144 144 145 145 148 148 146 146 145 140 135 133 133 132 129 128 127 127 123 118 114 107 102 97 95 95 95 97 96 93 90 87 83 83 86 91 94 97 100 102 102 100 97 96 94 94 93 91 89 87 87 88 93 100 112 119 119 111 111 116 117 116 111 115 116 118 121 122 123 119 115 113 111 106 104 102 99 97 96 100 104
146 145 144 144 145 146 147 148 151 149 147 146 144 140 137 136 136 134 132 131 131 130 127 124 120 112 105 98 94 93 93 94 92 90 89 88 86 84 85 89 94 97 100 101 100 98 96 94 93 91 90 89 85 82 79 85 96 100 109 121 119 107 107 110 114 120 120 121 117 117 125 128 126 122 119 118 117 114 111 107 102 100 97 96 96
146 146 146 146 147 147 147 150 151 148 147 146 144 143 141 140 139 137 135 134 134 134 134 130 125 118 108 100 95 93 92 91 91 89 87 85 84 86 87 89 92 97 98 99 101 99 96 94 91 87 84 81 76 74 70 78 99 103 109 121 121 108 109 111 113 122 125 125 123 125 133 133 127 124 123 119 119 118 115 111 106 101 98 95 93
147 147 147 148 149 149 148 149 150 149 147 145 146 146 144 143 141 140 139 138 138 137 136 133 128 121 112 105 99 93 89 89 86 81 83 84 81 85 90 93 95 98 101 103 106 104 102 97 90 86 83 78 72 70 64 68 94 108 110 115 117 110 112 116 119 128 124 121 126 131 135 134 129 127 125 121 119 120 115 109 106 102 99 96 93
150 149 149 150 150 150 150 150 151 151 148 147 149 149 147 147 145 145 145 144 142 138 134 132 128 123 117 111 100 92 85 84 82 74 77 83 87 91 90 93 99 101 103 108 111 111 108 98 91 88 85 82 76 74 72 73 86 109 117 114 112 108 117 128 126 128 122 119 129 132 136 136 132 130 130 130 128 125 121 114 110 105 100 97 94
152 151 152 153 152 151 151 152 154 153 150 149 150 151 152 151 152 150 149 147 144 143 138 133 129 127 125 120 112 109 107 95 94 87 75 78 82 87 87 90 99 108 109 111 117 119 112 96 85 82 80 79 77 80 89 98 104 114 122 117 110 117 135 141 131 126 127 132 141 139 140 141 137 138 137 137 136 131 129 124 118 111 105 102 96
152 153 156 155 152 153 154 155 156 156 153 150 150 156 158 156 158 155 152 150 148 150 146 141 137 137 136 130 127 135 145 126 114 113 90 82 69 65 81 89 94 106 112 114 120 118 110 94 73 62 49 16 56 86 101 122 129 126 131 119 105 118 127 134 139 132 134 143 149 144 145 146 144 145 142 140 137 133 130 126 123 116 109 108 102
155 156 159 158 154 155 157 156 158 159 156 151 152 160 161 159 163 160 157 156 155 154 153 152 152 157 150 142 141 149 162 147 127 123 101 88 74 69 77 88 98 104 108 111 115 106 91 67 51 32 326 301 318 51 122 139 146 136 131 116 110 128 118 123 138 132 137 150 151 147 149 150 148 148 146 142 137 134 133 128 124 121 115 112 109
157 157 160 159 156 158 159 159 160 160 158 155 155 161 161 162 167 166 165 167 166 161 162 166 170 181 167 165 175 160 159 143 129 127 113 94 87 97 91 94 98 95 112 109 100 97 71 13 323 267 276 289 301 244 158 132 175 170 132 115 118 137 129 119 130 128 139 157 151 150 152 150 151 151 149 144 140 139 139 135 130 127 123 118 115
156 156 160 160 158 159 160 161 163 163 162 160 160 163 164 166 171 172 173 174 176 170 175 180 176 184 181 181 183 164 155 139 134 141 140 139 137 141 127 134 129 103 156 153 206 250 265 306 299 278 250 250 293 240 202 63 184 175 135 131 130 148 152 136 131 133 144 155 149 153 155 153 153 153 154 150 145 145 144 143 141 138 133 128 123
157 160 161 159 160 161 162 162 165 166 165 164 164 167 168 172 176 178 178 179 183 176 182 191 183 182 185 186 175 165 169 160 160 169 170 168 166 169 165 178 182 181 209 235 243 239 246 268 281 280 250 233 299 62 100 50 121 128 106 108 101 149 159 145 131 134 140 142 144 154 158 157 156 155 157 156 152 151 150 150 148 146 144 140 136
160 161 161 160 162 164 165 164 167 170 169 168 167 170 173 177 180 180 181 183 184 179 185 197 194 184 182 189 180 171 179 174 176 188 198 178 170 170 171 183 184 193 210 232 264 231 235 258 259 261 254 199 195 79 84 115 109 110 107 98 85 62 137 144 141 137 139 138 137 148 159 159 160 157 158 160 159 160 158 156 154 154 154 150 149
162 160 162 164 165 166 167 166 170 171 171 171 169 171 175 180 182 181 185 186 184 184 190 194 191 185 183 188 179 174 184 174 173 187 188 166 159 153 158 179 166 191 222 242 298 224 235 270 256 245 247 164 155 114 103 138 117 106 117 127 163 100 108 143 150 141 140 142 137 139 150 157 163 161 160 162 161 164 165 162 159 160 161 159 159
164 166 165 166 168 168 169 169 171 173 173 172 172 176 178 183 182 181 188 187 184 187 190 190 182 181 190 187 178 180 183 169 174 190 193 168 152 146 156 171 136 173 250 291 275 256 261 302 241 231 223 168 128 105 116 137 126 110 117 180 230 189 110 134 152 146 137 140 138 136 141 147 161 166 161 161 162 165 169 166 165 165 165 165 169
167 169 167 168 171 171 172 172 173 174 174 173 175 179 179 185 184 180 187 186 187 190 186 190 182 179 189 185 185 188 161 155 175 187 184 169 158 162 160 150 164 203 251 288 247 275 306 284 248 239 200 154 85 88 114 129 131 117 110 194 278 210 138 137 149 146 133 133 137 136 138 140 153 166 163 159 160 165 171 168 170 173 169 168 174
169 171 169 169 170 172 175 173 174 176 176 176 176 178 179 186 184 179 186 184 189 194 187 191 187 183 187 184 189 189 146 131 170 168 161 166 168 168 150 136 210 203 210 228 237 252 241 250 254 262 44 123 109 99 121 123 130 119 119 164 315 321 292 163 138 135 125 129 138 137 140 144 150 163 167 164 162 168 173 170 173 177 172 171 176
174 175 170 170 173 175 178 176 176 177 178 179 177 178 181 185 184 180 185 184 188 195 188 193 190 185 190 188 190 188 171 142 157 152 157 173 181 165 152 210 217 195 194 192 219 237 228 241 233 217 16 114 120 82 73 100 120 117 132 174 333 61 25 84 124 129 126 125 133 139 142 147 152 163 168 169 169 170 173 171 173 177 175 175 180
177 177 171 173 176 177 179 178 177 177 179 181 179 181 182 184 184 183 185 185 188 193 189 193 191 183 188 186 187 188 182 171 152 151 164 183 191 174 183 215 212 202 206 158 204 244 237 246 251 228 357 313 67 76 49 71 104 105 123 111 133 157 349 92 115 119 123 119 121 135 143 144 148 159 164 170 176 174 173 173 173 176 177 177 179
179 178 176 176 178 179 178 177 176 177 181 182 180 182 182 183 184 184 186 186 188 192 191 194 190 181 183 181 183 188 184 180 168 168 178 192 198 190 191 215 217 201 203 215 243 244 239 272 300 323 322 316 64 80 66 68 86 87 96 108 185 261 342 88 97 97 107 114 117 126 140 150 145 145 149 159 174 177 175 175 175 174 176 179 181
180 179 181 179 178 180 179 178 177 177 181 182 181 183 183 183 185 186 187 186 188 192 194 194 190 186 184 183 183 185 184 181 180 181 184 194 205 203 198 209 212 198 200 222 250 253 248 294 293 332 337 19 78 89 95 82 79 98 118 144 175 316 53 95 89 86 95 106 119 131 146 163 163 149 138 141 153 168 176 178 176 175 177 182 186
182 180 181 180 180 181 179 180 178 177 180 181 181 182 183 184 184 188 187 187 189 193 198 194 190 190 188 189 188 187 187 182 181 185 188 200 211 213 215 213 200 206 216 207 224 259 250 249 253 4 5 28 79 104 116 103 97 112 200 179 152 42 73 92 88 87 93 103 122 140 148 160 178 170 147 140 138 145 166 178 179 180 181 184 189
182 180 180 180 182 182 180 182 179 178 181 180 181 181 183 185 184 188 188 187 191 195 199 197 193 191 191 194 192 190 191 187 184 186 188 200 215 216 217 213 200 206 218 210 218 240 237 227 231 83 22 348 42 104 134 132 140 162 229 175 122 70 78 92 89 88 92 102 121 136 142 154 170 166 161 168 157 137 147 166 175 181 186 191 195
180 181 183 181 182 183 181 182 180 180 181 179 180 180 182 184 184 189 188 188 194 197 198 198 196 193 193 198 196 192 195 194 189 188 188 195 218 221 208 204 201 197 199 212 224 222 222 218 201 152 69 354 14 54 98 131 141 165 145 91 94 85 88 101 100 96 103 109 117 126 131 143 148 151 160 169 175 159 144 150 162 173 183 192 197
181 181 184 182 182 183 182 182 180 179 180 179 179 178 180 183 185 189 190 192 197 200 200 199 199 196 192 199 199 193 195 197 192 191 190 189 209 224 212 199 197 198 202 216 224 214 206 181 196 229 129 46 352 70 359 116 74 69 96 96 101 87 86 102 104 101 113 119 119 127 134 144 150 152 147 149 167 177 154 143 151 159 168 179 183
183 181 181 182 184 182 182 182 178 177 178 177 178 179 181 184 187 190 191 195 199 201 202 199 199 198 193 195 196 190 193 198 196 195 193 187 201 221 220 200 188 197 212 220 219 211 204 176 185 242 150 69 227 200 308 96 101 72 81 97 113 94 84 96 105 110 117 122 126 138 147 146 149 147 133 132 150 162 155 141 143 155 157 155 162
181 182 177 181 187 183 180 181 179 178 178 178 180 182 184 185 187 190 192 195 198 200 203 200 197 198 194 193 194 189 191 198 197 198 198 191 198 214 214 202 193 198 212 224 221 206 201 186 185 200 195 228 224 194 357 113 126 124 95 104 121 135 106 95 111 129 129 131 136 154 162 140 134 134 129 130 143 149 147 139 146 166 161 138 142
181 183 178 181 187 183 178 180 182 180 180 181 182 184 186 186 187 189 191 193 196 198 201 202 199 197 194 193 195 192 193 199 199 200 201 197 202 212 207 197 198 205 211 219 223 206 187 191 210 206 197 209 235 209 168 166 153 139 137 137 139 134 114 127 161 144 139 147 154 179 169 140 130 120 121 123 136 140 130 123 134 149 145 134 138
182 184 182 181 185 185 178 179 184 184 183 183 184 187 188 188 189 189 191 191 194 197 199 200 201 198 194 196 197 195 197 200 200 202 203 201 203 209 205 195 199 210 208 203 212 218 197 194 216 216 199 196 221 217 187 223 198 138 144 159 156 131 102 192 200 146 144 160 167 159 127 130 128 121 131 128 126 127 117 114 120 121 125 127 136
182 184 184 182 184 187 180 178 184 185 185 185 184 188 190 190 191 191 193 194 192 194 198 200 202 201 197 197 198 198 199 201 202 203 205 206 206 208 207 198 200 209 208 205 210 215 206 201 207 205 208 207 198 179 187 231 151 131 146 221 190 156 127 218 195 151 153 160 164 149 122 128 123 118 140 133 120 119 114 117 120 121 129 128 127
184 185 186 184 184 187 182 179 183 184 183 185 186 187 189 190 192 192 194 198 193 189 195 200 199 201 201 198 199 200 200 201 204 206 206 209 212 214 213 206 205 209 208 211 215 211 204 203 203 200 210 223 196 163 168 181 161 144 92 42 186 159 138 188 176 152 162 162 165 158 148 160 141 106 123 121 115 122 121 118 118 121 130 133 135
188 187 186 186 184 185 183 179 183 184 182 185 186 186 188 189 192 193 192 195 195 188 192 198 197 198 202 201 198 198 201 202 204 208 208 210 214 215 214 210 208 211 212 214 218 211 202 198 198 198 206 223 219 179 169 166 189 238 302 360 249 170 127 164 160 41 168 170 169 161 165 177 162 146 132 129 136 143 138 128 122 124 130 138 147
189 186 185 186 184 183 184 180 182 185 182 184 185 185 187 188 191 195 193 193 195 194 195 198 199 198 201 203 197 195 201 203 203 208 209 210 217 216 210 210 208 209 211 208 209 205 201 202 199 199 204 210 218 208 178 161 174 222 227 238 249 227 43 116 133 128 160 266 206 169 176 182 168 171 182 175 166 157 148 145 139 134 139 147 152
189 186 185 186 185 183 184 182 182 186 184 184 185 185 187 188 191 194 196 196 196 199 197 198 202 201 200 203 198 195 200 203 203 207 209 209 218 215 206 207 208 209 212 206 203 203 205 207 199 196 202 201 202 212 202 172 171 191 203 221 239 220 309 73 134 149 160 173 256 211 195 187 183 184 192 201 184 161 148 156 164 160 156 162 163
189 187 186 185 184 183 183 183 183 186 186 185 185 186 188 189 191 193 196 197 197 199 197 197 201 201 201 202 200 198 199 202 203 206 210 208 213 214 207 206 206 209 216 209 203 204 205 203 196 195 198 199 198 203 214 187 177 188 190 207 240 203 187 190 157 172 216 175 171 227 207 186 190 192 196 207 182 168 166 169 177 181 178 168 166
192 188 187 184 182 181 181 183 184 185 187 187 186 187 189 190 192 194 195 196 196 197 196 196 198 201 205 203 201 200 197 199 202 205 209 209 210 213 210 209 206 207 212 212 209 206 203 200 197 198 196 197 199 200 208 201 196 200 184 193 223 205 189 198 179 188 219 226 184 218 194 183 189 178 186 215 189 177 180 173 171 188 190 170 164
195 189 187 184 181 180 180 183 185 186 187 188 187 188 190 192 193 194 195 195 195 195 195 195 195 200 207 203 201 202 197 196 200 203 207 208 208 210 210 210 208 207 209 211 213 208 204 203 199 199 198 197 200 199 199 203 214 217 185 187 204 205 207 214 202 199 200 189 212 235 191 186 194 170 173 215 216 198 181 169 174 193 187 182 180
Height
795 794 796 797 799 800 802 802 803 803 804 805 806 808 808 810 810 811 812 813 814 815 816 818 818 819 820 821 823 823 824 825 826 826 827 827 828 829 829 830 831 832 832 833 834 834 834 834 835 835 836 836 837 837 837 837 837 837 838 838 838 839 839 839 839 840 840 840 841 841 842 841 842 842 842 843 843 844 845 846 846 847 847 848 848
794 796 797 799 800 801 803 803 804 805 806 807 807 809 810 811 811 813 814 815 816 817 818 819 819 820 822 823 824 824 825 826 826 827 827 828 829 830 830 831 832 832 833 834 834 834 835 835 835 836 837 837 837 838 838 838 838 839 839 839 840 840 840 840 841 841 841 842 842 842 843 843 843 843 844 844 844 845 846 846 847 847 848 848 848
794 797 798 800 802 802 804 804 805 806 807 808 809 811 811 812 813 814 815 817 817 818 819 820 821 822 823 824 825 825 826 827 827 828 828 829 830 831 831 832 832 833 834 834 835 835 835 835 836 837 837 837 838 838 838 839 839 840 840 841 841 841 842 842 842 842 843 843 843 844 844 844 844 845 845 845 845 846 846 847 847 848 848 849 849
795 798 800 801 803 803 804 805 806 807 808 809 811 811 812 813 814 816 817 818 819 819 820 821 822 823 824 825 826 826 827 828 828 829 829 830 831 831 832 833 833 834 834 835 835 836 836 836 837 837 838 838 839 839 839 840 840 841 841 842 842 842 843 843 844 844 844 844 844 845 845 846 846 846 847 847 846 847 847 848 848 848 849 849 849
796 797 800 802 803 804 805 806 807 808 809 811 812 812 814 815 816 817 818 819 820 821 821 822 824 824 826 826 827 827 828 829 829 830 830 831 832 832 833 833 834 835 835 836 836 837 837 837 838 839 839 839 840 840 840 840 841 842 842 843 843 844 844 844 845 845 845 845 846 846 847 848 848 848 848 848 848 848 848 849 849 849 850 850 850
796 797 800 802 804 805 806 807 808 810 811 812 813 814 815 816 818 819 820 820 821 822 823 824 825 826 827 827 828 828 829 830 830 831 831 832 833 833 834 835 835 836 836 837 837 837 838 838 839 839 840 840 840 840 841 841 842 842 843 844 844 845 845 845 846 846 846 846 847 847 848 849 849 849 849 849 849 849 849 850 850 850 851 851 851
796 798 801 802 804 805 807 808 809 811 812 813 814 815 816 817 819 820 821 821 822 823 824 825 826 827 828 828 829 829 830 831 832 832 833 834 834 835 835 836 836 837 837 838 838 838 839 839 840 840 840 841 840 841 841 842 843 843 844 844 845 845 846 846 846 847 847 848 848 848 849 850 850 850 850 850 850 850 850 851 851 851 852 852 852
796 799 801 803 805 805 807 809 810 812 813 814 815 816 817 819 820 821 822 822 823 824 826 827 828 828 829 829 830 831 831 832 833 833 834 834 835 836 836 837 837 838 838 839 839 839 840 840 840 841 841 841 841 841 842 842 843 844 845 845 845 846 846 846 847 848 848 849 849 850 850 851 851 850 851 851 851 851 851 852 852 852 853 853 853
798 800 801 803 804 806 808 809 811 812 813 815 816 817 819 820 821 822 823 824 825 826 827 828 829 829 830 830 831 832 832 833 834 834 835 835 836 836 837 838 839 839 839 840 840 840 841 841 841 841 841 842 842 842 842 843 844 845 845 846 846 847 847 847 848 848 848 850 850 851 852 852 851 851 852 852 852 852 852 853 853 853 853 854 855
798 800 802 803 805 807 808 810 812 813 814 815 817 818 820 821 822 823 824 825 826 827 828 829 830 830 831 831 832 833 834 834 835 836 836 836 837 838 839 839 840 840 840 841 841 842 842 842 842 842 842 842 843 843 843 844 845 846 846 846 847 847 846 847 847 848 848 849 850 851 852 852 852 853 853 853 852 852 852 853 853 854 854 855 856
798 801 803 804 806 808 809 811 812 814 815 816 818 819 821 822 823 824 825 826 828 829 829 830 830 831 832 833 833 834 835 835 836 836 837 838 838 839 840 840 841 841 841 842 842 842 843 843 843 843 843 843 844 844 844 844 845 846 846 847 847 847 846 847 848 848 848 848 850 851 853 853 853 854 853 853 853 853 853 854 854 855 855 856 857
798 801 803 805 807 808 810 812 813 815 816 817 819 820 822 822 824 825 827 828 829 830 830 831 831 832 833 834 834 835 836 836 837 837 838 839 839 840 840 841 841 842 842 843 843 843 844 844 844 844 844 844 844 844 845 845 846 847 847 847 847 846 846 848 849 848 848 848 849 851 854 854 854 854 854 854 854 854 854 855 855 855 856 856 857
798 801 804 806 807 809 811 813 814 815 817 818 820 821 822 823 825 826 828 829 830 830 831 832 832 833 834 834 835 836 836 837 838 838 839 839 840 841 841 842 842 843 843 844 844 844 844 845 845 845 845 845 845 845 845 845 846 847 847 847 847 847 847 848 849 849 849 849 849 852 854 854 855 855 855 855 855 855 855 855 856 856 857 857 858
799 801 804 806 808 810 811 814 815 816 818 819 821 822 823 824 826 827 829 829 830 831 831 833 833 834 834 835 836 836 837 837 839 839 840 840 841 841 842 843 843 844 844 845 845 845 846 846 846 846 846 846 846 846 845 846 846 847 847 848 848 848 848 848 849 850 851 850 851 853 854 854 855 855 855 856 856 856 856 857 857 857 857 858 859
799 801 805 807 809 811 812 815 816 817 819 820 822 822 824 825 827 828 829 830 831 832 832 833 834 835 835 836 837 837 838 838 839 840 840 841 841 842 843 843 844 844 845 845 846 846 847 847 847 847 847 847 846 847 846 847 846 847 847 848 848 849 849 849 850 850 852 852 852 853 854 855 855 856 856 856 857 857 857 858 858 858 858 858 859
800 802 805 807 809 811 813 815 817 818 819 821 822 823 825 825 828 829 830 831 831 832 833 834 834 835 836 837 837 838 839 839 840 840 841 841 842 842 843 844 844 845 845 846 847 847 848 848 848 848 848 847 847 848 847 847 847 847 847 848 849 850 850 851 851 851 852 853 853 853 854 855 856 857 857 857 857 858 858 858 859 858 859 859 860
800 803 805 807 810 812 814 816 817 819 820 822 822 823 825 826 828 829 830 831 832 833 834 835 835 836 837 838 838 839 840 840 841 841 842 842 842 843 844 845 845 846 846 847 848 848 849 849 849 849 849 848 848 848 848 848 848 848 848 849 850 850 851 852 852 852 853 854 854 854 855 856 857 857 858 858 858 858 859 859 859 860 860 860 861
801 803 805 807 810 812 814 816 817 819 821 822 823 824 825 827 829 830 831 832 833 834 834 835 836 837 838 838 839 840 841 841 842 842 842 843 843 844 844 845 846 847 847 848 849 849 849 850 850 850 850 850 850 850 849 849 849 849 849 850 851 851 852 852 853 853 854 854 854 855 856 857 857 858 859 859 859 859 860 860 860 861 861 862 862
802 804 805 808 810 812 814 816 817 819 820 822 823 824 826 828 829 830 831 832 833 834 835 836 837 838 839 839 840 841 842 842 842 843 843 843 844 845 845 846 847 847 848 848 849 850 850 850 850 850 851 851 851 851 851 850 850 851 851 851 852 852 853 853 853 853 854 854 854 855 856 857 858 859 859 860 860 861 861 861 862 862 863 863 864
802 804 806 808 809 812 813 816 817 818 820 822 823 824 826 828 829 831 832 833 834 835 836 837 838 839 839 840 841 841 843 843 843 844 844 844 844 845 846 846 847 847 848 849 849 850 851 851 851 851 852 852 852 852 852 852 852 852 852 853 853 853 854 854 854 854 854 855 855 856 857 858 858 859 860 861 861 862 862 863 863 864 865 865 866
801 803 805 807 809 811 812 815 816 818 820 821 823 824 826 828 829 831 832 833 834 835 836 837 838 839 840 841 841 842 843 844 844 844 844 845 845 846 846 847 847 848 848 849 850 851 851 851 852 852 852 853 853 853 853 853 853 853 853 853 854 854 854 855 856 856 856 856 856 856 858 858 859 860 860 861 862 863 863 864 864 865 866 866 867
799 802 805 806 808 811 812 814 816 818 820 821 823 824 826 828 829 831 832 833 834 835 836 838 839 839 841 841 842 842 843 844 845 845 845 845 846 846 847 847 848 848 849 849 850 851 851 852 852 853 853 853 853 853 853 853 853 853 854 854 855 855 854 855 856 857 856 856 857 857 858 859 860 860 861 862 862 863 864 865 865 866 867 868 868
798 800 803 805 807 810 812 813 815 817 819 821 822 824 826 827 829 830 832 833 834 835 836 838 839 840 841 841 842 843 844 844 845 845 845 846 846 847 847 848 848 849 849 850 851 851 851 852 852 853 853 853 853 853 853 854 854 853 854 854 855 855 855 856 857 857 857 857 857 858 858 859 860 861 861 862 863 864 865 866 866 867 868 869 869
796 798 801 804 806 809 811 813 814 817 818 820 822 824 825 827 829 830 832 833 834 835 837 838 839 840 841 842 843 843 844 844 845 846 846 846 846 847 847 848 849 849 850 850 851 851 852 852 852 853 853 854 854 853 854 854 854 854 854 854 855 855 855 855 856 857 858 858 858 859 859 860 860 861 862 863 864 864 865 866 867 868 869 869 870
794 797 800 802 805 808 810 812 814 816 818 819 821 823 825 827 828 830 832 832 834 835 837 838 839 841 841 842 843 843 844 844 845 846 846 847 846 847 848 848 849 850 851 851 852 852 852 852 853 853 853 854 854 853 854 853 853 854 854 854 855 855 854 854 855 856 857 858 858 859 860 860 861 862 863 864 864 865 866 866 867 868 869 870 871
793 796 798 801 804 807 809 811 813 815 817 819 821 823 824 826 828 829 831 832 834 835 837 838 839 840 841 842 843 843 844 845 845 846 846 846 847 848 848 849 850 850 851 851 852 853 853 852 853 853 854 854 854 853 853 853 854 854 854 854 854 854 854 853 854 855 856 858 858 859 860 861 861 862 863 864 865 866 866 867 868 869 869 870 871
792 795 797 800 803 805 808 810 812 814 816 818 820 822 824 826 827 829 830 832 833 835 836 837 838 839 840 841 843 844 844 845 845 846 846 847 847 848 849 850 850 851 851 852 852 853 854 853 852 854 854 854 854 853 853 853 854 854 855 854 853 853 853 853 853 854 855 857 858 859 860 861 862 862 863 864 865 866 866 867 868 869 870 870 871
791 794 797 799 802 804 807 809 811 813 815 817 819 821 823 825 827 828 830 831 833 834 836 837 838 839 840 841 842 843 843 844 845 845 846 847 848 848 849 850 851 852 852 852 852 853 854 853 853 854 854 854 854 854 853 854 854 854 854 854 853 852 853 852 852 854 855 856 857 859 860 861 862 863 863 864 865 865 866 867 868 868 869 870 871
790 793 795 798 800 803 805 808 810 812 814 817 819 820 822 824 826 828 829 830 832 833 835 836 837 838 839 840 842 843 843 844 844 845 846 846 847 848 849 850 851 852 853 853 852 851 852 851 853 854 854 854 854 853 853 853 854 854 854 853 853 852 852 852 851 853 854 855 857 858 860 861 862 863 864 864 865 865 866 867 868 868 869 870 871
789 791 794 796 799 802 804 806 809 811 814 816 818 819 821 823 825 827 828 830 831 832 834 835 836 837 839 840 841 843 844 843 844 845 846 846 847 848 849 850 851 852 853 853 852 851 852 852 853 854 853 853 853 853 853 853 853 854 854 852 851 851 852 851 851 852 854 855 857 858 860 861 862 863 864 864 865 865 866 867 868 868 869 870 870
787 790 792 795 797 800 803 805 808 810 812 815 817 818 820 822 824 826 828 829 831 832 833 834 836 837 838 839 841 842 843 843 844 845 846 847 847 847 849 849 851 852 853 853 852 852 853 853 853 853 853 853 853 853 853 853 853 854 853 852 851 851 851 851 851 852 854 855 856 858 860 861 862 863 864 864 865 865 866 867 867 868 869 869 870
785 788 790 793 796 799 802 804 807 809 811 814 816 818 819 822 823 825 827 828 830 831 832 834 835 836 837 838 840 841 843 843 843 844 845 846 846 847 848 849 850 851 852 853 853 853 854 854 853 853 853 853 853 853 853 852 853 853 853 852 851 851 851 851 851 852 853 855 857 858 859 861 861 862 864 864 865 865 866 867 867 868 869 869 870
783 786 789 791 794 797 800 803 805 808 810 812 814 817 818 820 822 824 826 827 829 830 832 833 834 835 836 837 839 840 842 843 844 844 846 846 847 848 848 849 850 851 852 852 853 853 853 853 853 853 853 853 853 853 853 852 853 853 852 852 851 851 851 852 852 851 852 854 856 858 859 860 861 862 863 863 864 865 866 866 867 868 869 869 870
782 785 787 789 792 795 798 801 804 806 808 811 813 815 817 819 821 823 824 826 828 829 831 832 834 835 836 837 839 840 841 843 844 845 846 846 847 848 849 849 850 851 851 851 852 852 853 853 853 853 853 853 853 853 853 852 852 852 852 852 851 851 851 851 852 852 853 855 856 858 859 860 861 862 862 863 863 864 865 866 866 868 868 869 869
780 782 786 788 790 793 796 799 802 805 807 809 811 814 816 818 820 821 823 825 827 828 830 831 833 834 836 837 838 839 841 842 843 844 845 846 847 848 849 849 850 850 851 851 851 852 852 852 853 853 853 853 853 853 852 852 852 852 852 852 851 852 851 851 853 853 854 856 857 858 859 860 861 861 862 862 863 863 864 865 866 867 867 868 869
778 781 784 786 789 791 794 797 800 803 805 808 810 813 815 816 819 820 822 824 825 827 829 830 832 834 835 836 838 839 840 841 842 843 844 845 847 847 848 849 850 850 851 851 851 852 852 852 853 853 853 853 852 852 852 852 852 852 852 851 852 852 851 852 853 854 855 856 857 858 860 860 861 861 862 862 862 863 863 864 865 866 866 867 868
777 780 782 784 787 789 792 795 798 801 803 806 809 811 814 816 818 819 821 823 824 826 827 829 831 833 834 835 836 838 839 840 842 843 844 845 846 847 848 848 849 850 850 851 851 851 851 852 852 853 853 853 852 852 852 851 851 851 851 851 851 852 851 852 854 855 856 857 858 859 860 860 861 861 862 862 862 863 863 863 864 865 866 866 867
775 778 780 783 786 788 791 794 797 800 802 805 807 810 812 815 817 818 820 821 823 825 826 828 830 831 834 834 835 837 838 839 841 842 843 844 845 846 847 847 848 849 850 850 850 851 851 851 852 852 853 853 852 852 851 851 851 850 850 850 851 852 852 852 854 855 856 857 858 859 860 860 861 861 862 862 862 863 863 863 864 865 865 866 867
773 776 779 782 784 787 790 792 795 798 801 804 806 809 811 814 816 817 819 820 822 824 825 827 829 830 832 833 834 835 837 838 840 841 842 844 844 845 846 846 847 848 849 849 849 850 850 851 851 851 852 852 852 852 851 850 850 850 850 851 851 852 853 853 854 855 856 857 858 858 859 859 859 860 861 862 862 863 863 863 863 864 865 865 866
771 774 777 780 783 785 788 791 793 796 800 802 805 807 810 812 814 816 817 819 821 822 824 826 827 829 831 832 833 834 836 837 839 840 841 842 843 844 844 845 847 848 848 848 849 849 850 850 850 851 851 851 852 851 851 850 850 850 850 851 852 853 853 854 854 855 856 857 858 858 858 858 859 859 860 861 862 862 863 863 863 864 865 865 866
770 772 775 778 781 783 785 788 791 794 797 800 803 805 807 809 811 813 815 817 819 821 822 824 826 828 830 831 831 833 835 836 838 839 839 841 842 842 843 845 846 847 847 847 847 848 849 849 849 850 850 851 851 851 851 850 850 851 851 852 852 853 854 854 855 855 856 857 857 857 857 858 859 859 860 861 862 862 862 863 863 864 864 865 865
767 770 773 776 779 781 783 786 789 792 794 797 800 802 804 807 809 811 813 815 817 819 821 823 825 826 828 830 830 832 834 835 837 837 838 840 840 841 842 844 845 846 846 846 846 847 848 848 848 849 850 850 851 850 850 850 850 850 850 852 853 853 854 854 855 855 856 857 857 857 857 858 859 859 860 861 861 862 862 863 863 864 864 864 864
764 768 771 774 777 779 781 784 787 789 792 795 797 800 803 805 807 809 811 813 815 818 820 821 823 825 826 828 829 830 832 834 835 836 837 838 839 840 841 843 843 844 845 845 845 846 846 847 847 848 849 850 850 850 850 849 849 849 850 852 853 854 856 855 854 855 856 857 857 857 857 858 859 859 860 861 862 863 863 863 864 864 864 864 864
762 766 769 772 774 776 778 781 784 787 789 792 795 798 801 804 806 808 809 812 813 816 818 820 822 823 825 827 827 829 831 832 834 835 835 837 838 839 840 841 841 842 843 844 844 844 845 845 846 848 848 849 849 849 849 849 849 849 850 852 851 853 858 856 853 854 855 856 857 857 858 858 859 859 860 861 862 863 864 864 864 864 864 864 864
759 762 765 768 770 773 776 779 782 784 787 790 793 796 799 802 804 806 808 810 812 814 816 818 819 821 823 824 826 827 829 831 832 833 834 835 836 837 838 839 840 841 842 843 843 843 844 844 846 847 847 848 848 848 849 848 849 848 849 851 852 855 856 853 852 854 854 855 857 857 858 859 859 860 860 861 862 863 864 864 865 865 864 864 864
756 759 762 765 768 771 773 776 779 782 785 788 791 794 797 800 802 803 805 806 808 810 812 814 816 819 821 822 824 825 827 829 831 832 833 834 835 835 837 838 839 840 840 841 842 842 843 844 845 846 846 847 847 847 847 848 848 848 848 849 851 853 851 850 853 856 855 854 855 857 858 858 859 860 861 861 861 862 863 863 864 865 865 865 864
752 756 760 763 765 768 771 774 777 780 782 785 788 791 794 797 799 800 802 803 805 807 809 812 814 816 819 820 821 823 825 827 829 830 831 832 833 834 835 837 838 838 839 840 841 841 842 843 844 845 845 846 846 846 846 847 848 848 849 849 849 849 849 849 852 856 857 856 855 856 857 858 859 860 860 861 861 861 862 863 863 864 865 865 865
750 753 757 760 762 765 768 771 774 777 780 783 785 788 791 794 796 798 800 801 803 805 807 810 813 815 816 818 819 821 823 825 827 828 829 830 831 833 834 836 837 837 838 838 840 841 841 842 842 843 844 845 845 845 845 846 847 848 848 849 849 848 849 849 850 853 856 858 856 855 856 857 857 859 859 860 860 860 861 861 862 862 863 864 865
747 750 752 755 759 762 765 768 771 774 777 780 782 785 788 791 793 795 797 799 801 803 806 808 811 812 814 816 817 818 820 822 824 826 827 829 830 831 833 834 835 836 836 837 838 839 840 841 841 842 843 844 844 844 844 845 846 847 847 848 849 849 849 850 851 851 852 856 857 855 854 855 856 857 858 858 859 859 859 860 860 861 861 863 864
744 747 749 752 755 759 762 766 768 772 774 777 780 783 786 788 790 792 794 797 799 801 804 806 808 810 812 813 815 816 817 819 822 823 825 826 828 829 830 832 833 834 835 836 837 838 838 839 840 841 842 842 843 843 843 844 845 845 846 847 848 848 849 850 850 851 851 853 854 853 853 854 855 856 857 858 858 858 859 859 860 860 861 862 863
743 746 748 750 753 755 759 763 765 768 771 774 777 779 782 785 787 789 791 794 796 799 801 803 805 807 809 810 812 814 815 816 819 821 822 824 825 827 828 830 831 832 833 834 835 836 837 838 839 840 841 841 842 842 843 843 844 845 846 846 847 848 849 849 849 850 850 851 852 852 852 853 854 855 856 857 858 859 859 859 860 860 860 861 863